Weather History for PHNG - September, 2012

Change the Weather History Date:

Friday, September 7, 2012

  Actual Average Record
Temperature  
Mean Temperature 78 °F -  
Max Temperature 84 °F 81 °F 86 °F (2014)
Min Temperature 72 °F 72 °F 70 °F (2011)
Cooling Degree Days 13    
Growing Degree Days 28 (Base 50)    
Moisture  
Dew Point 69 °F    
Average Humidity 74    
Maximum Humidity 86    
Minimum Humidity 60    
Precipitation  
Precipitation 0.00 in - - ()
Sea Level Pressure  
Sea Level Pressure 29.98 in    
Wind  
Wind Speed 7 mph (ESE)    
Max Wind Speed 13 mph    
Max Gust Speed 18 mph    
Visibility 10 miles    
Events      
Averages and records for this station are not official NWS values.
T = Trace of Precipitation, MM = Missing Value Source: NWS Daily Summary

Daily Weather History Graph

Daily Weather History Graph

Search for Another Location

Airport or City:

Trip Planner

Search our weather history database for the weather conditions in past years. The results will help you decide how hot, cold, wet, or windy it might be!

Date:

Astronomy

Sep. 07, 2012 Rise Set
Actual Time 6:16 AM HST 6:41 PM HST
Civil Twilight 5:53 AM HST 7:03 PM HST
Nautical Twilight 5:27 AM HST 7:29 PM HST
Astronomical Twilight 5:01 AM HST 7:55 PM HST
Moon 11:38 PM HST (9/7) 12:25 PM HST (9/7)
Length of Visible Light 13h 09m
Length of Day
12h 24m
Waning Gibbous, 56% of the Moon is Illuminated
Sep 7
Waning Gibbous
Sep 8
Last Quarter
Sep 15
New
Sep 22
First Quarter
Sep 29
Full

Hourly Weather History & Observations

Time (HST) Temp. Heat Index Dew Point Humidity Pressure Visibility Wind Dir Wind Speed Gust Speed Precip Events Conditions
12:57 AM 75.2 °F - 69.1 °F 81% 29.97 in 10.0 mi East 8.1 mph 18.4 mph N/A   Mostly Cloudy
1:57 AM 75.2 °F - 68.0 °F 78% 29.96 in 10.0 mi ENE 6.9 mph - N/A   Overcast
2:57 AM 75.2 °F - 69.1 °F 81% 29.94 in 10.0 mi East 8.1 mph 16.1 mph N/A   Overcast
3:57 AM 75.2 °F - 69.1 °F 81% 29.95 in 10.0 mi Variable 5.8 mph - N/A   Overcast
4:34 AM 75.2 °F - 69.8 °F 83% 29.96 in 6.2 mi Variable 5.8 mph - N/A   Mostly Cloudy
4:45 AM 75.2 °F - 69.8 °F 83% 29.96 in 6.2 mi East 4.6 mph - N/A   Mostly Cloudy
4:57 AM 75.2 °F - 69.1 °F 81% 29.95 in 10.0 mi East 6.9 mph - N/A   Mostly Cloudy
5:22 AM 84.2 °F 88.4 °F 69.8 °F 62% 29.97 in 6.2 mi East 9.2 mph - N/A   Mostly Cloudy
5:57 AM 75.2 °F - 69.1 °F 81% 29.97 in 10.0 mi Variable 5.8 mph - N/A   Partly Cloudy
6:57 AM 75.2 °F - 70.0 °F 84% 29.98 in 10.0 mi Calm Calm - N/A   Mostly Cloudy
7:57 AM 78.8 °F - 70.0 °F 74% 30.00 in 10.0 mi East 8.1 mph - N/A   Mostly Cloudy
8:57 AM 79.0 °F - 69.1 °F 72% 30.01 in 10.0 mi Variable 4.6 mph - N/A   Mostly Cloudy
9:57 AM 79.3 °F - 70.0 °F 73% 30.01 in 10.0 mi East 12.7 mph 18.4 mph N/A   Mostly Cloudy
10:57 AM 79.3 °F - 70.0 °F 73% 30.00 in 10.0 mi ESE 11.5 mph 18.4 mph N/A   Scattered Clouds
11:57 AM 79.5 °F - 68.2 °F 68% 29.99 in 10.0 mi East 10.4 mph - N/A   Scattered Clouds
12:57 PM 80.2 °F 83.3 °F 69.8 °F 70% 29.97 in 10.0 mi East 11.5 mph 17.3 mph N/A   Overcast
1:57 PM 81.3 °F 84.6 °F 69.4 °F 67% 29.95 in 10.0 mi ESE 5.8 mph - N/A   Mostly Cloudy
2:57 PM 81.7 °F 84.5 °F 68.0 °F 63% 29.94 in 10.0 mi East 9.2 mph - N/A   Overcast
3:57 PM 81.0 °F 83.0 °F 66.0 °F 60% 29.94 in 10.0 mi East 9.2 mph - N/A   Overcast
4:57 PM 80.2 °F 82.8 °F 68.0 °F 66% 29.94 in 10.0 mi SE 6.9 mph - N/A   Overcast
5:57 PM 78.6 °F - 64.9 °F 63% 29.95 in 10.0 mi ESE 6.9 mph 16.1 mph N/A   Overcast
6:57 PM 79.2 °F - 64.0 °F 60% 29.98 in 10.0 mi SSE 3.5 mph - N/A   Overcast
7:57 PM 79.0 °F - 66.9 °F 66% 30.00 in 10.0 mi South 3.5 mph - N/A   Overcast
8:57 PM 72.5 °F - 68.0 °F 86% 30.02 in 10.0 mi Calm Calm - N/A   Partly Cloudy
9:57 PM 73.2 °F - 67.5 °F 82% 30.02 in 10.0 mi Calm Calm - N/A   Clear
10:57 PM 73.4 °F - 68.9 °F 86% 30.03 in 10.0 mi Calm Calm - N/A   Scattered Clouds
11:57 PM 73.4 °F - 68.0 °F 83% 30.01 in 10.0 mi Calm Calm - N/A   Scattered Clouds